Date,TemperatureHighF,TemperatureAvgF,TemperatureLowF,DewpointHighF,DewpointAvgF,DewpointLowF,HumidityHigh,HumidityAvg,HumidityLow,PressureMaxIn,PressureMinIn,WindSpeedMaxMPH,WindSpeedAvgMPH,GustSpeedMaxMPH,PrecipitationSumIn
2013-1-1,47.5,42.4,37.8,46.7,38.7,35.9,97,87,77,30.02,29.50,8,5,21,0.04
2013-1-2,51.1,44.8,39.6,50.1,43.1,36.8,98,94,87,30.32,30.04,8,5,14,0.00
2013-1-3,51.7,50.2,48.3,49.9,48.8,47.7,98,95,93,30.60,30.33,9,6,20,0.01
2013-1-4,49.9,48.5,46.0,48.0,46.1,44.2,97,91,86,30.65,30.59,7,5,17,0.00
2013-1-5,50.4,47.8,43.7,48.3,46.5,42.9,99,95,90,30.59,30.51,7,4,15,0.00
2013-1-6,46.9,45.2,43.5,46.5,44.8,43.0,100,99,96,30.51,30.39,6,3,13,0.01
2013-1-7,48.2,45.7,43.8,46.4,44.9,43.1,99,97,93,30.39,30.24,6,4,14,0.00
2013-1-8,50.8,49.2,47.0,48.8,47.4,45.6,99,94,91,30.26,30.18,9,6,17,0.04
2013-1-9,49.3,43.9,31.5,48.5,42.0,30.7,99,93,76,30.19,30.08,3,2,11,0.07
2013-1-10,36.8,34.3,30.1,36.0,33.6,29.6,99,97,95,30.07,29.93,3,1,8,0.01
2013-1-11,43.1,36.9,33.4,40.4,35.7,32.6,98,95,89,30.08,29.99,3,1,7,0.00
2013-1-12,39.9,37.2,33.0,36.5,33.7,29.4,99,87,66,29.98,29.86,11,6,27,0.08
2013-1-13,36.8,34.1,30.6,33.0,30.5,27.9,90,87,82,30.15,29.97,7,3,16,0.00
2013-1-14,36.8,33.2,31.0,35.4,31.8,29.5,98,94,88,30.10,29.63,7,3,19,0.10
2013-1-15,38.0,33.8,28.9,33.9,31.6,27.6,95,92,85,29.87,29.63,8,3,19,0.00
2013-1-16,30.7,28.4,25.7,29.9,27.5,24.7,98,96,92,30.02,29.84,4,2,10,0.00
2013-1-17,34.4,30.2,24.1,32.0,28.3,23.1,96,92,83,30.08,29.90,3,1,9,0.00
2013-1-18,34.4,30.4,28.1,29.5,28.1,26.5,97,91,80,29.88,29.45,8,6,21,0.06
2013-1-19,32.9,31.5,30.4,31.8,29.6,27.2,97,93,87,29.50,29.41,8,5,18,0.04
2013-1-20,32.0,30.7,29.3,30.7,28.9,26.5,96,93,86,29.49,29.28,7,4,20,0.12
2013-1-21,33.6,31.2,27.9,31.5,29.9,26.7,97,95,92,29.49,29.26,4,1,7,0.00
2013-1-22,35.8,30.6,23.3,34.2,29.3,22.3,99,95,87,29.69,29.50,8,4,18,0.02
2013-1-23,35.0,34.1,33.3,33.0,32.0,30.8,96,92,89,29.81,29.69,8,5,16,0.01
2013-1-24,35.1,33.9,32.5,32.4,30.9,29.6,94,89,83,30.14,29.81,6,2,14,0.00
2013-1-25,37.4,33.2,29.4,35.6,30.5,27.6,96,90,83,30.12,29.57,6,3,20,0.04
2013-1-26,45.2,40.7,35.5,43.4,38.6,34.6,98,93,82,29.83,29.55,9,5,22,0.32
2013-1-27,50.5,45.7,38.8,49.3,40.7,33.8,98,83,58,29.61,29.26,16,11,32,0.20
2013-1-28,50.7,43.1,35.0,48.5,40.6,33.7,97,91,82,29.81,29.51,15,9,37,0.15
2013-1-29,55.9,52.4,48.1,53.7,50.6,45.8,99,94,84,29.64,29.52,16,12,32,0.07
2013-1-30,54.7,49.2,44.0,53.1,44.0,39.0,97,83,64,30.01,29.50,20,12,39,0.19
2013-1-31,50.0,47.2,43.3,45.1,41.4,39.4,90,80,68,30.02,29.78,16,11,35,0.08